This is the latest recevied weather packets stored in our database for station/object AI9F. If no packets are shown the sender has not sent any weather packets the latest 10 day(s).
| Time | Temp. | Humidity | Pressure | Rain* | Wind** | Luminosity | Snow |
|---|---|---|---|---|---|---|---|
| 1777555686 | 12.22° C | 68% | 1019 hPa | 0 mm | - | 50 W/m² | - |
| 1777555383 | 12.22° C | 70% | 1019 hPa | 0 mm | - | 43 W/m² | - |
| 1777555079 | 12.22° C | 69% | 1019.1 hPa | 0 mm | - | 43 W/m² | - |
| 1777554777 | 12.22° C | 71% | 1019.2 hPa | 0 mm | - | 42 W/m² | - |
| 1777554474 | 11.67° C | 71% | 1019 hPa | 0 mm | - | 43 W/m² | - |
| 1777554170 | 11.11° C | 74% | 1019.1 hPa | 0 mm | - | 49 W/m² | - |
| 1777553867 | 10.56° C | 74% | 1018.9 hPa | 0 mm | - | 162 W/m² | - |
| 1777553564 | 10.56° C | 75% | 1019 hPa | 0 mm | - | 169 W/m² | - |
| 1777553259 | 10° C | 76% | 1018.9 hPa | 0 mm | - | 157 W/m² | - |
| 1777552956 | 10° C | 78% | 1019.1 hPa | 0 mm | - | 143 W/m² | - |
| 1777552650 | 9.44° C | 78% | 1019 hPa | 0 mm | - | 127 W/m² | - |
| 1777552348 | 9.44° C | 80% | 1019.1 hPa | 0 mm | - | 91 W/m² | - |
| 1777552044 | 8.89° C | 81% | 1019.1 hPa | 0 mm | - | 74 W/m² | - |
| 1777551741 | 8.33° C | 82% | 1019 hPa | 0 mm | - | 64 W/m² | - |
| 1777551438 | 7.78° C | 82% | 1018.9 hPa | 0 mm | - | 56 W/m² | - |
| 1777551135 | 7.22° C | 85% | 1018.9 hPa | 0 mm | - | 53 W/m² | - |
| 1777550833 | 6.67° C | 90% | 1019.2 hPa | 0 mm | - | 50 W/m² | - |
| 1777550529 | 6.11° C | 94% | 1018.9 hPa | 0 mm | - | 47 W/m² | - |
| 1777550225 | 5.56° C | 95% | 1018.8 hPa | 0 mm | - | 43 W/m² | - |
| 1777549921 | 5.56° C | 95% | 1018.9 hPa | 0 mm | - | 30 W/m² | - |
| 1777549617 | 5° C | 95% | 1018.5 hPa | 0 mm | - | 26 W/m² | - |
| 1777549315 | 5° C | 95% | 1018.6 hPa | 0 mm | - | 19 W/m² | - |
| 1777549011 | 5° C | 95% | 1018.6 hPa | 0 mm | - | 17 W/m² | - |
| 1777548707 | 5° C | 94% | 1019 hPa | 0 mm | - | 15 W/m² | - |
| 1777548404 | 5° C | 94% | 1018.4 hPa | 0 mm | - | 13 W/m² | - |
* Rain latest hour (hover to see other rain measurements)
** Current wind speed in m/s (hover to see current wind gust speed)